Regional Weather Roundup
Issued by NWS

Home | Current Version | Previous Version | Text Only | Print | Product List | Glossary On
Versions: 1 2 3 4 5 6 7 8 9 10 11 12 13 14 15 16 17 18 19 20 21 22 23 24 25 26 27 28 29 30 31 32 33 34 35 36 37 38 39 40 41 42 43 44 45 46 47 48 49 50
000
ASUS43 KLMK 231602
RWRKY
KENTUCKY REGIONAL WEATHER ROUNDUP
NATIONAL WEATHER SERVICE LOUISVILLE KY
1100 AM EST TUE JAN 23 2018

NOTE "FAIR" INDICATES FEW OR NO CLOUDS BELOW 12,000 FEET
WITH NO SIGNIFICANT WEATHER AND/OR OBSTRUCTIONS TO VISIBILITY.

KYZ001>023-026-027-061>063-070>075-231700-
WESTERN AND SOUTH CENTRAL KENTUCKY

CITY           SKY/WX    TMP DP  RH WIND       PRES   REMARKS
PADUCAH        CLOUDY    40  29  64 W14G21    30.03R WCI  32
HENDERSON      CLOUDY    38  32  79 W14       29.99R WCI  30
OWENSBORO      CLOUDY    39  32  76 W18       29.98R WCI  30
HOPKINSVILLE   CLOUDY    41  29  63 W13       30.00R
BOWLING GREEN  CLOUDY    44  30  57 W12G22    29.99R
GLASGOW        NOT AVBL
$$

KYZ024-025-028>034-038-045-046-053-231700-
NORTH CENTRAL KENTUCKY

CITY           SKY/WX    TMP DP  RH WIND       PRES   REMARKS
LOUISVILLE/SDF CLOUDY    41  30  65 W21G26    29.93R
LOUISVILLE/LOU CLOUDY    41  31  67 SW17G23   29.92R
FORT KNOX      CLOUDY    39  30  70 W14G21    29.93R WCI  31
$$

KYZ035>037-039>044-047>052-055>060-089>105-231700-
NORTHEAST KENTUCKY

CITY           SKY/WX    TMP DP  RH WIND       PRES   REMARKS
LEXINGTON      CLOUDY    41  29  62 SW17G32   29.90R
COVINGTON      CLOUDY    38  33  82 SW14G24   29.84R WCI  30
FRANKFORT      CLOUDY    42  27  55 W15G25    29.89R
$$

KYZ054-064>069-076>088-106>120-231700-
SOUTHEAST KENTUCKY

CITY           SKY/WX    TMP DP  RH WIND       PRES   REMARKS
JACKSON        CLOUDY    45  30  55 VRB6      29.87R
LONDON         CLOUDY    44  28  53 W16       29.92R
SOMERSET       NOT AVBL
MIDDLESBORO    CLOUDY    44  29  55 SW3       29.94S
MONTICELLO     CLOUDY    45  30  55 W15G24    29.97R
$$




USA.gov is the U.S. government's official web portal to all federal, state and local government web resources and services.